Location: Shepherdstown, WV
(39.4326°N, 77.8042°W)
Time: 04:04:51
(UTC-04:00)

Vanguard 3 - Pass Details

Date: 03 August 2021
Orbit: 510 x 3260 km, 33.3° (Epoch: 21 September)

Event Time Altitude Azimuth Distance (km) Brightness Sun altitude
Rises 19:58:28 0° 259° (W) 5,571 12.6 3.2°
Reaches altitude 10° 20:01:36 10° 257° (WSW) 4,869 12.2 2.7°
Maximum altitude 20:16:56 72° 177° (S) 3,153 10.1 -0.1°
Drops below altitude 10° 20:36:54 10° 99° (E) 6,116 11.0 -3.6°
Enters shadow 20:40:59 - 97° (E) 6,916 11.3 -4.3°
Sets 20:41:25 0° 97° (E) 6,999 - -4.4°
